Weather History for KMMU - October, 2012

Change the Weather History Date:

Wednesday, October 24, 2012

  Actual Average Record
Temperature  
Mean Temperature 56 °F -  
Max Temperature 60 °F 64 °F 82 °F (2001)
Min Temperature 53 °F 37 °F 19 °F (1969)
Degree Days  
Heating Degree Days 8    
Growing Degree Days 6 (Base 50)    
Moisture  
Dew Point 54 °F    
Average Humidity 95    
Maximum Humidity 100    
Minimum Humidity 82    
Precipitation  
Precipitation 0.00 in - - ()
Sea Level Pressure  
Sea Level Pressure 30.13 in    
Wind  
Wind Speed 1 mph (NE)    
Max Wind Speed 6 mph    
Max Gust Speed -    
Visibility 4 miles    
Events Rain    
Averages and records for this station are not official NWS values.
T = Trace of Precipitation, MM = Missing Value Source: NWS Daily Summary

Daily Weather History Graph

Daily Weather History Graph

Search for Another Location

Airport or City:

Trip Planner

Search our weather history database for the weather conditions in past years. The results will help you decide how hot, cold, wet, or windy it might be!

Date:

Astronomy

Oct. 24, 2012 Rise Set
Actual Time 7:19 AM EDT 6:03 PM EDT
Civil Twilight 6:51 AM EDT 6:31 PM EDT
Nautical Twilight 6:19 AM EDT 7:03 PM EDT
Astronomical Twilight 5:47 AM EDT 7:35 PM EDT
Moon 3:19 PM EDT (10/24) 2:10 AM EDT (10/24)
Length of Visible Light 11h 40m
Length of Day
10h 44m
Waxing Gibbous, 76% of the Moon is Illuminated
Oct 24
Waxing Gibbous
Oct 29
Full
Nov 6
Last Quarter
Nov 13
New
Nov 20
First Quarter

Hourly Weather History & Observations

Time (EDT) Temp. Dew Point Humidity Pressure Visibility Wind Dir Wind Speed Gust Speed Precip Events Conditions
12:15 AM 53.6 °F 53.6 °F 100% 30.09 in 5.0 mi Calm Calm - N/A   Overcast
12:35 AM 53.6 °F 53.6 °F 100% 30.09 in 4.0 mi Calm Calm - N/A   Overcast
12:55 AM 53.6 °F 53.6 °F 100% 30.10 in 7.0 mi Calm Calm - N/A   Overcast
1:15 AM 53.6 °F 53.6 °F 100% 30.10 in 7.0 mi Calm Calm - N/A   Overcast
1:35 AM 53.6 °F 53.6 °F 100% 30.10 in 7.0 mi Calm Calm - N/A   Overcast
1:55 AM 53.6 °F 53.6 °F 100% 30.10 in 5.0 mi Calm Calm - N/A   Overcast
2:15 AM 53.6 °F 53.6 °F 100% 30.10 in 5.0 mi Calm Calm - N/A   Overcast
2:35 AM 53.6 °F 53.6 °F 100% 30.10 in 4.0 mi Calm Calm - N/A   Overcast
2:55 AM 53.6 °F 53.6 °F 100% 30.10 in 4.0 mi Calm Calm - N/A   Overcast
3:15 AM 53.6 °F 53.6 °F 100% 30.10 in 4.0 mi Calm Calm - N/A   Overcast
3:35 AM 53.6 °F 53.6 °F 100% 30.10 in 5.0 mi Calm Calm - N/A   Overcast
3:55 AM 53.6 °F 53.6 °F 100% 30.10 in 4.0 mi Calm Calm - N/A   Overcast
4:15 AM 53.6 °F 53.6 °F 100% 30.11 in 4.0 mi Calm Calm - N/A   Overcast
4:35 AM 53.6 °F 53.6 °F 100% 30.11 in 4.0 mi Calm Calm - N/A   Overcast
4:55 AM 53.6 °F 53.6 °F 100% 30.11 in 4.0 mi Calm Calm - N/A   Overcast
5:15 AM 53.6 °F 53.6 °F 100% 30.12 in 5.0 mi Calm Calm - N/A   Overcast
5:35 AM 53.6 °F 53.6 °F 100% 30.12 in 4.0 mi Calm Calm - N/A   Mostly Cloudy
5:55 AM 53.6 °F 53.6 °F 100% 30.13 in 4.0 mi Calm Calm - N/A   Mostly Cloudy
6:15 AM 53.6 °F 53.6 °F 100% 30.13 in 4.0 mi Calm Calm - N/A   Overcast
6:35 AM 53.6 °F 53.6 °F 100% 30.13 in 3.0 mi Calm Calm - N/A   Overcast
6:45 AM 53.6 °F 53.6 °F 100% 30.13 in 4.0 mi Calm Calm - N/A   Overcast
7:09 AM 53.6 °F 53.6 °F 100% 30.14 in 2.2 mi NE 3.5 mph - N/A   Overcast
7:45 AM 53.6 °F 53.6 °F 100% 30.15 in 2.0 mi NE 3.5 mph - N/A   Overcast
8:45 AM 55.4 °F 53.6 °F 94% 30.16 in 2.2 mi Calm Calm - N/A Rain Light Rain
9:45 AM 55.4 °F 55.4 °F 100% 30.16 in 2.0 mi NNE 4.6 mph - N/A Rain Light Rain
10:45 AM 57.2 °F 53.6 °F 88% 30.15 in 2.5 mi NNE 4.6 mph - N/A   Overcast
11:45 AM 57.2 °F 55.4 °F 94% 30.14 in 2.8 mi ENE 4.6 mph - N/A   Overcast
12:45 PM 59.0 °F 55.4 °F 88% 30.13 in 2.8 mi ENE 4.6 mph - N/A   Overcast
1:45 PM 59.0 °F 55.4 °F 88% 30.12 in 2.5 mi NE 4.6 mph - N/A   Overcast
2:45 PM 60.8 °F 55.4 °F 82% 30.11 in 2.8 mi NNE 3.5 mph - N/A   Overcast
3:23 PM 60.8 °F 55.4 °F 82% 30.12 in 4.0 mi East 5.8 mph - N/A   Overcast
3:45 PM 60.8 °F 55.4 °F 82% 30.12 in 4.0 mi ESE 3.5 mph - N/A   Overcast
4:45 PM 60.8 °F 55.4 °F 82% 30.12 in 4.0 mi East 3.5 mph - N/A   Overcast
5:45 PM 59.0 °F 53.6 °F 82% 30.14 in 3.0 mi East 4.6 mph - N/A   Overcast
6:45 PM 57.2 °F 53.6 °F 88% 30.16 in 3.0 mi ENE 5.8 mph - N/A   Overcast
7:45 PM 57.2 °F 53.6 °F 88% 30.16 in 3.0 mi Calm Calm - N/A   Overcast
8:45 PM 57.2 °F 53.6 °F 88% 30.18 in 3.0 mi Calm Calm - N/A   Overcast
9:45 PM 55.4 °F 53.6 °F 94% 30.19 in 7.0 mi Calm Calm - N/A   Overcast
10:55 PM 55.4 °F 53.6 °F 94% 30.20 in 10.0 mi NNE 3.5 mph - N/A   Overcast
11:15 PM 55.4 °F 53.6 °F 94% 30.19 in 10.0 mi Calm Calm - N/A   Overcast
11:35 PM 55.4 °F 53.6 °F 94% 30.20 in 10.0 mi Calm Calm - N/A   Overcast
11:55 PM 55.4 °F 53.6 °F 94% 30.21 in 10.0 mi NNE 3.5 mph - N/A   Overcast